TimeEDT,TemperatureF,Dew PointF,Humidity,Sea Level PressureIn,VisibilityMPH,Wind Direction,Wind SpeedMPH,Gust SpeedMPH,PrecipitationIn,Events,Conditions,WindDirDegrees,DateUTC
12:58 AM,61.2,59.2,93,29.91,10.0,Variable,2.3,-,N/A,,Overcast,0,2013-05-07 04:58:00
1:17 AM,60.8,59.0,94,29.90,10.0,SE,3.5,-,N/A,Rain,Light Rain,130,2013-05-07 05:17:00
1:31 AM,60.8,57.2,88,29.89,10.0,SE,5.8,-,N/A,,Overcast,130,2013-05-07 05:31:00
1:58 AM,60.6,57.0,88,29.89,10.0,SE,2.3,-,0.00,,Overcast,130,2013-05-07 05:58:00
2:58 AM,59.5,55.2,86,29.86,10.0,South,4.6,-,N/A,,Scattered Clouds,180,2013-05-07 06:58:00
3:58 AM,57.9,54.3,88,29.86,10.0,WNW,1.2,-,N/A,,Mostly Cloudy,290,2013-05-07 07:58:00
4:58 AM,53.8,51.8,93,29.87,10.0,East,1.2,-,N/A,,Clear,80,2013-05-07 08:58:00
5:43 AM,51.8,51.8,100,29.86,1.2,Calm,Calm,-,N/A,,Clear,0,2013-05-07 09:43:00
5:46 AM,51.8,51.8,100,29.87,1.0,Calm,Calm,-,N/A,,Partly Cloudy,0,2013-05-07 09:46:00
5:49 AM,51.8,51.8,100,29.86,1.2,Calm,Calm,-,N/A,,Partly Cloudy,0,2013-05-07 09:49:00
5:52 AM,51.8,51.8,100,29.87,2.0,Calm,Calm,-,N/A,,Partly Cloudy,0,2013-05-07 09:52:00
5:55 AM,51.8,51.8,100,29.86,8.0,Calm,Calm,-,N/A,,Scattered Clouds,20,2013-05-07 09:55:00
5:58 AM,52.5,51.8,97,29.87,10.0,NNE,1.2,-,N/A,,Scattered Clouds,30,2013-05-07 09:58:00
6:58 AM,52.5,51.4,96,29.89,10.0,Calm,Calm,-,N/A,,Partly Cloudy,30,2013-05-07 10:58:00
7:58 AM,57.2,54.9,92,29.91,10.0,South,4.6,-,N/A,,Overcast,170,2013-05-07 11:58:00
8:58 AM,58.6,55.6,90,29.92,10.0,SSW,3.5,-,N/A,,Mostly Cloudy,200,2013-05-07 12:58:00
9:58 AM,62.4,55.4,78,29.92,10.0,Variable,1.2,-,N/A,,Mostly Cloudy,0,2013-05-07 13:58:00
10:58 AM,66.2,54.7,66,29.92,10.0,South,4.6,-,N/A,,Mostly Cloudy,180,2013-05-07 14:58:00
11:58 AM,68.7,51.1,53,29.94,10.0,WSW,8.1,-,N/A,,Mostly Cloudy,240,2013-05-07 15:58:00
12:58 PM,71.1,49.8,47,29.93,10.0,SW,6.9,18.4,N/A,,Mostly Cloudy,220,2013-05-07 16:58:00
1:36 PM,71.6,48.2,43,29.90,10.0,SW,12.7,-,N/A,,Mostly Cloudy,230,2013-05-07 17:36:00
1:58 PM,72.1,48.0,42,29.91,10.0,SSW,13.8,21.9,N/A,,Partly Cloudy,200,2013-05-07 17:58:00
2:58 PM,71.1,47.8,44,29.89,10.0,SW,10.4,-,N/A,,Mostly Cloudy,230,2013-05-07 18:58:00
3:58 PM,73.2,47.8,41,29.87,10.0,SW,12.7,-,N/A,,Mostly Cloudy,220,2013-05-07 19:58:00
4:58 PM,70.0,46.8,43,29.89,10.0,SW,12.7,-,N/A,,Overcast,220,2013-05-07 20:58:00
5:58 PM,68.4,47.7,48,29.89,10.0,SSW,5.8,-,N/A,,Overcast,210,2013-05-07 21:58:00
6:05 PM,69.8,48.2,46,29.88,10.0,SSW,6.9,-,N/A,,Mostly Cloudy,200,2013-05-07 22:05:00
6:58 PM,68.9,46.8,45,29.89,10.0,SW,6.9,-,N/A,,Clear,220,2013-05-07 22:58:00
7:58 PM,65.3,48.0,54,29.91,10.0,SSW,8.1,-,N/A,,Clear,210,2013-05-07 23:58:00
8:58 PM,61.3,50.4,67,29.93,10.0,South,4.6,-,N/A,,Clear,180,2013-05-08 00:58:00
9:58 PM,60.4,51.4,72,29.95,10.0,SW,3.5,-,N/A,,Mostly Cloudy,230,2013-05-08 01:58:00
10:58 PM,58.3,50.4,75,29.96,10.0,SE,4.6,-,N/A,,Clear,130,2013-05-08 02:58:00
11:58 PM,57.4,50.5,78,29.96,10.0,South,3.5,-,N/A,,Clear,190,2013-05-08 03:58:00